User: anonymous   Login
Location: Unspecified
(0.0000°N, 0.0000°E)
Time: 15:57:44
(UTC+00:00)
Language:

CICERO 8 - Orbit

View from above orbital plane
View from above orbital plane
View from above satellite
View from above satellite

Ground track
Ground track

The orbit data is extracted from the following two-line orbital elements,

1 43737U 18096U   21334.01309357  .00005730  00000-0  17562-3 0  9998
2 43737  97.3770  53.6683 0019879  46.4011 313.8877 15.33993352167677
Epoch (UTC): 30 November 2021 00:18:51
Eccentricity: 0.0019879
inclination: 97.3770°
perigee height: 450 km
apogee height: 477 km
right ascension of ascending node: 53.6683°
argument of perigee: 46.4011°
revolutions per day: 15.33993352
mean anomaly at epoch: 313.8877°
orbit number at epoch: 16767

The dashed part of the orbit path shows where the satellite is in the earth's shadow,  

DLR